Location: Bouchavesnes-Bergen
(49.9859°N, 2.9203°E)
Time: 02:49:38
(UTC+00:00)

Sich 1 - Pass Details

Date: 09 March 2021
Orbit: 593 x 625 km, 82.5° (Epoch: 11 April)

Event Time Altitude Azimuth Distance (km) Brightness Sun altitude
Rises 04:42:50 0° 343° (NNW) 2,918 6.5 -15.5°
Reaches altitude 10° 04:45:11 10° 336° (NNW) 2,003 5.5 -15.2°
Maximum altitude 04:49:18 39° 268° (W) 943 3.5 -14.5°
Drops below altitude 10° 04:53:21 10° 200° (SSW) 1,971 5.3 -13.9°
Sets 04:55:39 0° 193° (SSW) 2,865 6.3 -13.5°
